Find Starlink 38000

NORAD ID: 100428 Int'l Des: 2026-192 Owner: SPXS Country: US Constellation: starlink operational

現在のビュー

3D地球を読み込み中...

About Starlink 38000

Starlink 38000 (NORAD 100428) is a starlink constellation satellite launched Aug 21, 2026 by SPXS of US. with a mass of 575.00 kg.

次回通過

Passes for default location (London). Set your location on the main map for personalized predictions.

高度履歴

Loading altitude history...

軌道要素

1 A0428U 26192AA 26249.61223434 .00117924 00000-0 62139-3 0 9990
2 A0428 53.1590 14.1196 0001232 90.4450 269.6714 15.79845711 3737
Epoch: Sep 6, 2026 • Age: 7 hours

現在のステータス

高度 332.7 km
遠地点 / 近地点 N/A
速度 7.71 km/s
衛星直下点 35.28°N, 145.02°W
打ち上げ日 Aug 21, 2026
運用期間 16 days
タイプ internet

技術仕様

分類 Payload
質量 575.00 kg
乾燥質量 530.00 kg
総質量 575.00 kg
長さ 0.30 m
直径 4.10 m
スパン 29.00 m
形状 Box + pan
製造者 SPXS
バスタイプ Starlink V2MO
フェーズステータス In Orbit
所有者/国 SPXS/US

Most Searched